Date String (YYYY-MM-DD hh:mm:ss) UTC,Instrument flags,Ambient pressure (hPa),Sample flow (lpm),Bypass flow (lpm),Sample temperature (°C),Ambient temperature (°C),ASC tube jacket temperature (°C),LED temperature (°C),Box temperature (°C),Sample RH (%),Span deviation,Mass concentration (μg/m³),Mass concentration (μg/m³),Mass concentration (μg/m³)
DateTimeUTC,F1_M11,P_M11,Q1_M11,Q2_M11,T1_M11,T2_M11,T3_M11,T4_M11,T5_M11,U1_M11,ZSPAN_M11,X2_M11,X0_M11,X1_M11
2022-07-02 02:00:00,,0826.5,5.01,0.00,29.5,28.6,00.0,38.1,31.5,23.0,0000.0,0004.57,0009.07,0003.87
2022-07-02 02:01:00,,0826.5,5.01,0.00,29.5,28.5,00.0,38.1,31.5,23.1,0000.0,0004.58,0009.08,0003.88
2022-07-02 02:02:00,,0826.5,5.01,0.00,29.5,27.9,00.0,38.1,31.4,23.4,0000.0,0004.57,0008.83,0003.88
2022-07-02 02:03:00,,0826.5,4.99,0.00,29.5,27.5,00.0,38.1,31.4,23.4,0000.0,0004.55,0009.40,0003.88
2022-07-02 02:04:00,,0826.5,4.99,0.00,29.5,27.5,00.0,38.1,31.3,23.7,0000.0,0004.60,0009.96,0003.90
2022-07-02 02:05:00,,0826.5,5.00,0.00,29.4,27.6,00.0,38.1,31.3,23.7,0000.0,0004.59,0009.92,0003.90
2022-07-02 02:06:00,,0826.5,5.00,0.00,29.4,27.7,00.0,38.1,31.3,23.7,0000.0,0004.58,0009.96,0003.90
2022-07-02 02:07:00,,0826.5,5.01,0.00,29.4,27.9,00.0,38.1,31.3,23.7,0000.0,0004.57,0009.98,0003.91
2022-07-02 02:08:00,,0826.5,4.99,0.00,29.4,28.0,00.0,38.1,31.4,23.5,0000.0,0004.58,0009.76,0003.90
2022-07-02 02:09:00,,0826.5,5.00,0.00,29.5,28.2,00.0,38.2,31.4,23.4,0000.0,0004.60,0009.85,0003.88
2022-07-02 02:10:00,,0826.5,4.99,0.00,29.5,28.3,00.0,38.2,31.5,23.5,0000.0,0004.62,0010.06,0003.86
2022-07-02 02:11:00,,0826.5,5.01,0.00,29.5,28.4,00.0,38.2,31.5,23.3,0000.0,0004.61,0011.42,0003.85
2022-07-02 02:12:00,,0826.5,5.00,0.00,29.6,28.5,00.0,38.2,31.6,23.3,0000.0,0004.60,0011.71,0003.83
2022-07-02 02:13:00,,0826.5,5.02,0.00,29.6,28.3,00.0,38.2,31.5,23.2,0000.0,0004.60,0012.11,0003.80
2022-07-02 02:14:00,,0826.5,5.00,0.00,29.5,27.5,00.0,38.2,31.4,23.2,0000.0,0004.59,0011.34,0003.78
2022-07-02 02:15:00,,0826.5,5.00,0.00,29.5,26.9,00.0,38.1,31.2,23.2,0000.0,0004.56,0011.11,0003.74
2022-07-02 02:16:00,,0826.4,4.99,0.00,29.4,26.9,00.0,38.1,31.1,23.4,0000.0,0004.55,0011.13,0003.72
2022-07-02 02:17:00,,0826.5,5.01,0.00,29.3,27.0,00.0,38.1,31.1,23.5,0000.0,0004.53,0011.05,0003.70
2022-07-02 02:18:00,,0826.5,5.00,0.00,29.3,27.2,00.0,38.1,31.1,23.5,0000.0,0004.48,0010.84,0003.67
2022-07-02 02:19:00,,0826.5,5.00,0.00,29.3,27.4,00.0,38.1,31.1,23.4,0000.0,0004.44,0010.76,0003.65
2022-07-02 02:20:00,,0826.4,5.00,0.00,29.3,27.6,00.0,38.1,31.2,23.4,0000.0,0004.42,0010.71,0003.66
2022-07-02 02:21:00,,0826.4,5.00,0.00,29.3,27.7,00.0,38.1,31.2,23.4,0000.0,0004.41,0010.57,0003.66
2022-07-02 02:22:00,,0826.5,5.00,0.00,29.3,27.9,00.0,38.1,31.3,23.2,0000.0,0004.37,0009.19,0003.65
2022-07-02 02:23:00,,0826.4,5.01,0.00,29.3,28.1,00.0,38.1,31.3,23.1,0000.0,0004.41,0009.11,0003.65
2022-07-02 02:24:00,,0826.3,5.00,0.00,29.4,28.2,00.0,38.1,31.4,22.9,0000.0,0004.38,0008.61,0003.66
2022-07-02 02:25:00,,0826.2,5.00,0.00,29.4,28.3,00.0,38.1,31.4,22.8,0000.0,0004.38,0008.56,0003.66
2022-07-02 02:26:00,,0826.2,5.00,0.00,29.4,28.4,00.0,38.1,31.5,22.8,0000.0,0004.37,0008.18,0003.66
2022-07-02 02:27:00,,0826.2,5.00,0.00,29.5,28.5,00.0,38.2,31.5,22.8,0000.0,0004.38,0008.32,0003.66
2022-07-02 02:28:00,,0826.2,4.98,0.00,29.5,28.6,00.0,38.2,31.6,22.9,0000.0,0004.40,0008.46,0003.66
2022-07-02 02:29:00,,0826.2,4.99,0.00,29.6,28.4,00.0,38.2,31.5,22.9,0000.0,0004.41,0008.57,0003.66
2022-07-02 02:30:00,,0826.2,5.00,0.00,29.5,27.6,00.0,38.1,31.4,22.9,0000.0,0004.45,0008.65,0003.66
2022-07-02 02:31:00,,0826.3,5.01,0.00,29.5,27.1,00.0,38.1,31.2,22.9,0000.0,0004.46,0008.67,0003.66
2022-07-02 02:32:00,,0826.3,5.00,0.00,29.4,27.0,00.0,38.1,31.2,23.2,0000.0,0004.43,0008.54,0003.66
2022-07-02 02:33:00,,0826.4,5.01,0.00,29.3,27.1,00.0,38.1,31.1,23.4,0000.0,0004.41,0008.38,0003.66
2022-07-02 02:34:00,,0826.5,5.00,0.00,29.3,27.2,00.0,38.1,31.1,23.5,0000.0,0004.35,0008.26,0003.66
2022-07-02 02:35:00,,0826.5,4.99,0.00,29.3,27.4,00.0,38.1,31.2,23.5,0000.0,0004.33,0008.18,0003.65
2022-07-02 02:36:00,,0826.5,4.99,0.00,29.3,27.6,00.0,38.1,31.2,23.6,0000.0,0004.32,0008.10,0003.65
2022-07-02 02:37:00,,0826.5,5.01,0.00,29.3,27.8,00.0,38.1,31.2,25.0,0000.0,0004.32,0008.10,0003.65
2022-07-02 02:38:00,,0826.5,4.99,0.00,29.3,27.9,00.0,38.1,31.3,25.8,0000.0,0004.30,0008.48,0003.64
2022-07-02 02:39:00,,0826.5,5.00,0.00,29.3,28.1,00.0,38.1,31.3,25.9,0000.0,0004.34,0010.35,0003.64
2022-07-02 02:40:00,,0826.5,5.00,0.00,29.4,28.2,00.0,38.1,31.4,25.9,0000.0,0004.36,0010.71,0003.65
2022-07-02 02:41:00,,0826.6,5.00,0.00,29.4,28.3,00.0,38.1,31.4,25.8,0000.0,0004.39,0010.85,0003.68
2022-07-02 02:42:00,,0826.6,5.00,0.00,29.5,28.4,00.0,38.1,31.5,25.9,0000.0,0004.43,0011.40,0003.69
2022-07-02 02:43:00,,0826.7,4.99,0.00,29.5,28.5,00.0,38.2,31.5,25.5,0000.0,0004.47,0012.97,0003.70
2022-07-02 02:44:00,,0826.7,5.01,0.00,29.5,28.6,00.0,38.2,31.5,25.3,0000.0,0004.56,0013.45,0003.71
2022-07-02 02:45:00,,0826.7,5.00,0.00,29.6,28.7,00.0,38.2,31.6,25.3,0000.0,0004.61,0013.70,0003.73
2022-07-02 02:46:00,,0826.7,5.00,0.00,29.6,28.0,00.0,38.2,31.5,24.7,0000.0,0004.60,0014.07,0003.73
2022-07-02 02:47:00,,0826.7,5.00,0.00,29.5,27.5,00.0,38.1,31.4,24.7,0000.0,0004.62,0014.45,0003.72
2022-07-02 02:48:00,,0826.7,4.98,0.00,29.5,27.5,00.0,38.2,31.3,24.9,0000.0,0004.61,0014.40,0003.72
2022-07-02 02:49:00,,0826.7,5.00,0.00,29.4,27.5,00.0,38.2,31.3,24.9,0000.0,0004.62,0014.73,0003.73
2022-07-02 02:50:00,,0826.7,5.01,0.00,29.4,27.7,00.0,38.2,31.3,24.7,0000.0,0004.58,0012.91,0003.72
2022-07-02 02:51:00,,0826.7,5.00,0.00,29.4,27.8,00.0,38.2,31.3,24.4,0000.0,0004.54,0012.49,0003.70
2022-07-02 02:52:00,,0826.8,4.99,0.00,29.4,28.0,00.0,38.2,31.4,24.1,0000.0,0004.52,0012.37,0003.67
2022-07-02 02:53:00,,0826.8,5.00,0.00,29.5,28.1,00.0,38.2,31.4,24.2,0000.0,0004.52,0012.11,0003.65
2022-07-02 02:54:00,,0826.8,5.00,0.00,29.5,28.2,00.0,38.2,31.4,24.2,0000.0,0004.52,0010.84,0003.64
2022-07-02 02:55:00,,0826.9,5.00,0.00,29.5,28.4,00.0,38.2,31.5,24.1,0000.0,0004.44,0010.45,0003.62
2022-07-02 02:56:00,,0827.0,4.99,0.00,29.5,28.5,00.0,38.2,31.5,24.0,0000.0,0004.40,0010.51,0003.59
2022-07-02 02:57:00,,0826.9,5.00,0.00,29.6,28.6,00.0,38.3,31.6,24.0,0000.0,0004.41,0010.83,0003.58
2022-07-02 02:58:00,,0826.9,5.00,0.00,29.6,28.7,00.0,38.3,31.6,23.9,0000.0,0004.40,0010.71,0003.58
2022-07-02 02:59:00,,0826.9,5.01,0.00,29.6,28.3,00.0,38.3,31.6,23.9,0000.0,0004.42,0010.97,0003.59
